Вернуться в каталог

STARLINK-11510

АктивенСвязьVLEO
NORAD 62516·PAYLOAD·🇺🇸 United States

Запущен Jan 8, 2025 с Cape Canaveral Space Force Station

Loading…

Ближайшие Пролёты (ближайшие 24 часа)

TLE

СвежийSource: CelesTrak SupGP

Эпоха: Sep 15, 2026, 02:37 UTC

1 62516C 25004F   26258.10951389 -.00089703  00000+0 -69677-3 0  2584
2 62516  43.0009   9.2360 0001778 267.7459 190.3323 15.70880685    11

Отслеживайте STARLINK-11510 в реальном времени с AllMySat

Download on the App Store